Powrót do katalogu

HULIANWANG DIGUI-52

AktywnyŁącznośćLEO
NORAD 65109·PAYLOAD·🇨🇳 China

Wystrzelony Aug 4, 2025 z Wenchang Space Launch Site

Loading…

Następne Przeloty (najbliższe 24 godziny)

TLE

ŚwieżeSource: Space-Track

Epoka: Sep 14, 2026, 14:23 UTC

1 65109U 25168D   26257.59991421 -.00000082  00000-0  89614-4 0  9998
2 65109  50.0053   5.0520 0009659   8.8237 351.2804 13.29326832 54589

Śledź HULIANWANG DIGUI-52 w czasie rzeczywistym z AllMySat

Download on the App Store